Harvey, ND

7:02 AM CDT on July 22, 2017 (GMT -0500)
Harvey

Weather History for K5H4 - May, 2013

Change the Weather History Date:

Thursday, May 16, 2013

  Actual Average (KRUG) Record (KRUG)
Temperature  
Mean Temperature 54 °F -  
Max Temperature 62 °F 69 °F 90 °F (1972)
Min Temperature 46 °F 42 °F 25 °F (1983)
Degree Days  
Heating Degree Days 11    
Growing Degree Days 4 (Base 50)    
Moisture  
Dew Point 49 °F    
Average Humidity 90    
Maximum Humidity 100    
Minimum Humidity 55    
Precipitation  
Precipitation 0.00 in - - ()
Sea Level Pressure  
Sea Level Pressure 29.92 in    
Wind  
Wind Speed 6 mph (SSE)    
Max Wind Speed 20 mph    
Max Gust Speed 24 mph    
Visibility 8 miles    
Events      
Averages and records for this station are not official NWS values.
T = Trace of Precipitation, MM = Missing Value Source: NWS Daily Summary

Daily Weather History Graph

Daily Weather History Graph

Search for Another Location

Airport or City:

Trip Planner

Search our weather history database for the weather conditions in past years. The results will help you decide how hot, cold, wet, or windy it might be!

Date:

Astronomy

May. 16, 2013 Rise Set
Actual Time 6:00 AM CDT 9:12 PM CDT
Civil Twilight 5:23 AM CDT 9:50 PM CDT
Nautical Twilight 4:34 AM CDT 10:38 PM CDT
Astronomical Twilight 3:34 AM CDT 11:40 PM CDT
Moon 11:43 AM CDT (5/16) 1:27 AM CDT (5/16)
Length of Visible Light 16h 27m
Length of Day
15h 12m
Waxing Crescent, 36% of the Moon is Illuminated
May 16
Waxing Crescent
May 17
First Quarter
May 24
Full
May 31
Last Quarter
Jun 8
New

Hourly Weather History & Observations

Time (CDT) Temp. Windchill Dew Point Humidity Pressure Visibility Wind Dir Wind Speed Gust Speed Precip Events Conditions
12:15 AM 50.0 °F - 44.6 °F 82% 29.88 in 10.0 mi WSW 8.1 mph - N/A   Clear
12:35 AM 48.2 °F - 44.6 °F 87% 29.88 in 10.0 mi SW 6.9 mph - N/A   Clear
12:55 AM 48.2 °F - 42.8 °F 82% 29.88 in 10.0 mi West 3.5 mph - N/A   Clear
1:15 AM 50.0 °F - 42.8 °F 76% 29.88 in 10.0 mi WSW 5.8 mph - N/A   Clear
1:35 AM 48.2 °F - 42.8 °F 82% 29.88 in 10.0 mi SW 5.8 mph - N/A   Clear
1:55 AM 46.4 °F - 44.6 °F 93% 29.88 in 10.0 mi Calm Calm - N/A   Clear
2:15 AM 48.2 °F - 44.6 °F 87% 29.88 in 10.0 mi SW 4.6 mph - N/A   Clear
2:35 AM 48.2 °F - 42.8 °F 82% 29.88 in 10.0 mi WSW 4.6 mph - N/A   Partly Cloudy
2:55 AM 46.4 °F - 42.8 °F 87% 29.88 in 10.0 mi Calm Calm - N/A   Scattered Clouds
3:15 AM 46.4 °F 45.2 °F 42.8 °F 87% 29.88 in 10.0 mi ESE 3.5 mph - N/A   Partly Cloudy
3:35 AM 48.2 °F - 41.0 °F 76% 29.88 in 10.0 mi Calm Calm - N/A   Partly Cloudy
3:55 AM 46.4 °F 45.2 °F 41.0 °F 81% 29.88 in 10.0 mi ESE 3.5 mph - N/A   Scattered Clouds
4:15 AM 46.4 °F 45.2 °F 42.8 °F 87% 29.88 in 10.0 mi SSE 3.5 mph - N/A   Mostly Cloudy
4:35 AM 48.2 °F - 42.8 °F 82% 29.89 in 10.0 mi South 4.6 mph - N/A   Mostly Cloudy
4:55 AM 48.2 °F - 44.6 °F 87% 29.89 in 10.0 mi South 3.5 mph - N/A   Mostly Cloudy
5:15 AM 48.2 °F - 44.6 °F 87% 29.89 in 10.0 mi Calm Calm - N/A   Mostly Cloudy
5:35 AM 48.2 °F - 44.6 °F 87% 29.89 in 10.0 mi SW 3.5 mph - N/A   Mostly Cloudy
5:55 AM 48.2 °F - 46.4 °F 93% 29.90 in 10.0 mi SSW 3.5 mph - N/A   Mostly Cloudy
6:15 AM 48.2 °F - 46.4 °F 93% 29.90 in 10.0 mi South 3.5 mph - N/A   Mostly Cloudy
6:35 AM 48.2 °F - 44.6 °F 87% 29.90 in 10.0 mi SW 4.6 mph - N/A   Partly Cloudy
6:55 AM 48.2 °F - 46.4 °F 93% 29.90 in 10.0 mi SSW 4.6 mph - N/A   Clear
7:15 AM 51.8 °F - 48.2 °F 88% 29.89 in 10.0 mi Calm Calm - N/A   Clear
7:35 AM 53.6 °F - 46.4 °F 77% 29.89 in 10.0 mi Calm Calm - N/A   Clear
7:55 AM 55.4 °F - 46.4 °F 72% 29.90 in 10.0 mi SSW 3.5 mph - N/A   Clear
8:15 AM 59.0 °F - 44.6 °F 59% 29.89 in 10.0 mi SSW 3.5 mph - N/A   Clear
8:35 AM 59.0 °F - 44.6 °F 59% 29.90 in 10.0 mi Calm Calm - N/A   Clear
8:55 AM 59.0 °F - 46.4 °F 63% 29.90 in 10.0 mi SW 4.6 mph - N/A   Clear
9:15 AM 59.0 °F - 46.4 °F 63% 29.90 in 10.0 mi SW 5.8 mph - N/A   Clear
9:35 AM 62.6 °F - 46.4 °F 55% 29.90 in 10.0 mi SW 8.1 mph - N/A   Clear
9:55 AM 60.8 °F - 48.2 °F 63% 29.90 in 10.0 mi West 4.6 mph - N/A   Clear
10:15 AM 59.0 °F - 48.2 °F 67% 29.90 in 10.0 mi West 8.1 mph - N/A   Clear
10:35 AM 59.0 °F - 48.2 °F 67% 29.91 in 10.0 mi SW 11.5 mph - N/A   Clear
10:55 AM 57.2 °F - 53.6 °F 88% 29.91 in 5.0 mi SW 19.6 mph 24.2 mph N/A   Mostly Cloudy
11:15 AM 57.2 °F - 51.8 °F 82% 29.92 in 9.0 mi SSW 9.2 mph - N/A   Mostly Cloudy
11:35 AM 55.4 °F - 53.6 °F 94% 29.93 in 6.0 mi SSW 10.4 mph - N/A   Overcast
11:55 AM 55.4 °F - 53.6 °F 94% 29.94 in 3.0 mi South 13.8 mph - N/A   Overcast
12:15 PM 55.4 °F - 53.6 °F 94% 29.96 in 5.0 mi SSW 9.2 mph - N/A   Mostly Cloudy
12:35 PM 55.4 °F - 55.4 °F 100% 29.96 in 3.0 mi South 4.6 mph - N/A   Mostly Cloudy
12:55 PM 55.4 °F - 55.4 °F 100% 29.97 in 7.0 mi SW 4.6 mph - N/A   Mostly Cloudy
1:15 PM 55.4 °F - 55.4 °F 100% 29.97 in 5.0 mi South 3.5 mph - N/A   Mostly Cloudy
1:35 PM 55.4 °F - 55.4 °F 100% 29.97 in 5.0 mi SE 4.6 mph - N/A   Mostly Cloudy
2:15 PM 53.6 °F - 53.6 °F 100% 29.99 in 2.5 mi ESE 3.5 mph - N/A   Overcast
2:35 PM 53.6 °F - 53.6 °F 100% 29.99 in 2.5 mi SE 4.6 mph - N/A   Overcast
2:55 PM 53.6 °F - 53.6 °F 100% 29.99 in 2.0 mi ESE 4.6 mph - N/A   Overcast
3:15 PM 53.6 °F - 53.6 °F 100% 29.98 in 2.5 mi East 4.6 mph - N/A   Mostly Cloudy
3:35 PM 53.6 °F - 53.6 °F 100% 29.98 in 3.0 mi East 8.1 mph - N/A   Overcast
3:55 PM 53.6 °F - 53.6 °F 100% 29.98 in 2.5 mi East 8.1 mph - N/A   Overcast
4:15 PM 53.6 °F - 53.6 °F 100% 29.97 in 1.5 mi East 11.5 mph - N/A   Overcast
4:35 PM 51.8 °F - 51.8 °F 100% 29.95 in 3.0 mi East 13.8 mph - N/A   Overcast
5:15 PM 51.8 °F - 51.8 °F 100% 29.93 in 9.0 mi ESE 16.1 mph - N/A   Overcast
5:35 PM 51.8 °F - 51.8 °F 100% 29.93 in 10.0 mi ESE 16.1 mph 23.0 mph N/A   Overcast
5:55 PM 51.8 °F - 51.8 °F 100% 29.92 in 10.0 mi East 16.1 mph - N/A   Mostly Cloudy
6:15 PM 51.8 °F - 51.8 °F 100% 29.91 in 10.0 mi ESE 17.3 mph 20.7 mph N/A   Overcast
6:35 PM 51.8 °F - 51.8 °F 100% 29.91 in 10.0 mi ESE 13.8 mph - N/A   Overcast
6:55 PM 51.8 °F - 51.8 °F 100% 29.90 in 10.0 mi ESE 12.7 mph - N/A   Mostly Cloudy
7:15 PM 51.8 °F - 51.8 °F 100% 29.90 in 10.0 mi ESE 10.4 mph - N/A   Mostly Cloudy
7:35 PM 51.8 °F - 51.8 °F 100% 29.90 in 10.0 mi ESE 11.5 mph - N/A   Scattered Clouds
7:55 PM 51.8 °F - 51.8 °F 100% 29.90 in 9.0 mi SE 11.5 mph - N/A   Scattered Clouds
8:15 PM 51.8 °F - 51.8 °F 100% 29.90 in 9.0 mi SE 12.7 mph - N/A   Overcast
8:35 PM 51.8 °F - 51.8 °F 100% 29.90 in 10.0 mi SE 11.5 mph 16.1 mph N/A   Mostly Cloudy
8:55 PM 51.8 °F - 51.8 °F 100% 29.90 in 10.0 mi SE 10.4 mph - N/A   Mostly Cloudy
9:15 PM 51.8 °F - 51.8 °F 100% 29.91 in 10.0 mi SE 9.2 mph - N/A   Overcast
9:35 PM 51.8 °F - 51.8 °F 100% 29.92 in 5.0 mi SE 8.1 mph - N/A   Mostly Cloudy
9:55 PM 51.8 °F - 51.8 °F 100% 29.92 in 10.0 mi SE 9.2 mph - N/A   Overcast
10:15 PM 51.8 °F - 51.8 °F 100% 29.92 in 10.0 mi ESE 10.4 mph - N/A   Overcast
10:35 PM 51.8 °F - 51.8 °F 100% 29.93 in 10.0 mi East 9.2 mph - N/A   Mostly Cloudy
10:55 PM 51.8 °F - 51.8 °F 100% 29.94 in 9.0 mi ESE 6.9 mph - N/A   Mostly Cloudy
11:15 PM 51.8 °F - 51.8 °F 100% 29.94 in 9.0 mi East 6.9 mph - N/A   Mostly Cloudy
11:35 PM 51.8 °F - 51.8 °F 100% 29.93 in 10.0 mi East 9.2 mph - N/A   Overcast
11:55 PM 51.8 °F - 51.8 °F 100% 29.93 in 10.0 mi East 5.8 mph - N/A   Overcast